www.pogodaiklimat.ru

Погода и климат >> Архив погоды >> Чехия >> Пардубице


ПОГОДА в Пардубице

  • Прогноз погоды в Пардубице
  • Монитор погоды в Пардубице

АРХИВ ПОГОДЫ в Пардубице

Время (UTC), дата Ветер
(напр.,м/с)
 
Видим.   Явления Облачность Т
(С)
Тd
(С)
f
(%)
Тe
(С)
Тes
(С)
Комфортность P
(гПа)
Po
(гПа)
Тmin
(С)
Tmax
(С)
R
(мм)
R24
(мм)
S
(см)
22 9.09 З 7 20 км в посл. час дождь 10/10 570 м
[Sc]
+11.7 +10.0 89 +8 +8 1013.2 986.3
23 9.09 З 7
{11}
20 км 10/10 800 м
[Sc]
+11.7 +9.8 88 +8 +8 1013.7 986.8
00 10.09 З 6
{14}
20 км {дождь} 10/10 800 м
[Sc]
+12.1 +9.1 82 +9 +9 1014.2 987.3 1
01 10.09 З 5 20 км 9/9 1110 м
[Sc]
+12.2 +9.1 81 +10 +10 1014.7 987.8
02 10.09 З 4 20 км 9/9 1320 м
[Sc]
+12.2 +9.1 81 +10 +10 1015.0 988.1
03 10.09 ЮЗ 3 20 км 5/5 1500 м
[Sc]
+10.7 +8.6 87 +9 +9 1015.6 988.5
04 10.09 З 4 20 км ясно +11.1 +8.5 84 +9 +9 1016.0 988.9
05 10.09 ЮЗ 2 20 км 3/3 1500 м
[Sc]
+10.8 +8.3 85 +9 +9 1016.7 989.6
06 10.09 Ю 1 20 км 1/0 2000 м
[Ac trans Ci fib]
+12.4 +9.1 80 +12 +14 1017.3 990.3 +10.0 1
07 10.09 З 4 20 км 4/0
[Ac trans Ci]
+14.0 +9.3 73 +13 +14 1018.0 991.2
08 10.09 З 4 20 км 5/1 660 м
[Cu hum Ci]
+15.0 +9.6 70 +14 +17 1018.6 991.8
09 10.09 З 3 20 км 4/4 750 м
[Cu hum Ci fib]
+16.3 +9.5 64 +16 +20 1018.6 992.0
10 10.09 З 3 20 км 5/5 900 м
[Cu hum Ci fib]
+17.6 +9.4 59 +18 +22 1018.4 991.9
11 10.09 ЮЗ 2 20 км 5/5 1200 м
[Cu hum Ci fib]
+18.5 +8.8 53 +19 +25 1018.2 991.8
12 10.09 З 1 20 км 6/6 1410 м
[Cu hum]
+19.1 +8.4 50 +21 +25 комфорт 1018.1 991.7
13 10.09 ЮВ 1 20 км 6/6 1500 м
[Cu hum]
+19.5 +8.1 48 +21 +25 комфорт 1018.0 991.7
14 10.09 В 1 20 км 6/6 1500 м
[Cu hum]
+19.4 +8.5 49 +21 +24 комфорт 1018.1 991.7
15 10.09 С 1 20 км 8/8 1500 м
[Cu hum]
+19.7 +8.1 47 +22 +22 комфорт 1018.2 991.9
16 10.09 С 1 20 км 6/4 1500 м
[Sc diur, vesp Ci fib]
+19.2 +9.8 54 +21 +22 комфорт 1018.4 992.0
17 10.09 В 1 20 км 6/4 1500 м
[Sc Ci fib]
+18.0 +9.6 58 +19 +19 1018.8 992.3
18 10.09 ЮВ 1 20 км 3/3 1500 м
[Sc Ci fib]
+15.4 +11.1 76 +16 +16 1019.4 992.7 +20.2
19 10.09 ЮЗ 1 20 км 5/5 1500 м
[Sc]
+13.9 +11.4 85 +14 +14 1020.1 993.2
20 10.09 В 1 20 км 4/4 1200 м
[Sc]
+13.2 +11.0 87 +13 +13 1020.8 993.8
21 10.09 В 1 20 км 5/0
[Ci]
+12.3 +10.7 90 +12 +12 1021.2 994.1
22 10.09 В 1 20 км 5/0
[Ci fib]
+11.3 +10.0 92 +11 +11 1021.7 994.5
23 10.09 В 1 20 км 4/0
[Ci fib]
+11.3 +10.1 92 +11 +11 1021.7 994.5
00 11.09 В 1 20 км 5/0
[Ci]
+10.7 +9.8 94 +10 +10 1021.8 994.6
01 11.09 В 1 10 км 5/0
[Ci fib]
+10.9 +10.1 95 +10 +10 1021.9 994.7
02 11.09 З 1 10 км 8/0
[Ci fib]
+10.1 +9.3 95 +10 +10 1022.2 994.9
03 11.09 ЮЗ 1 10 км 8/0
[Ci fib]
+9.0 +8.3 95 +8 +8 1022.5 995.1
04 11.09 Ю 1 10 км 8/0
[Ci fib]
+8.9 +8.2 95 +8 +8 1023.0 995.5
05 11.09 ЮВ 1 15 км 8/0
[Ac trans Ci fib]
+9.1 +8.5 96 +8 +8 1023.2 995.8
06 11.09 В 1 20 км 8/0 2000 м
[Ac trans Cc]
+11.0 +10.1 94 +11 +11 1023.5 996.2 +8.5
07 11.09 В 1 20 км 8/0
[Ac trans Cc]
+13.3 +11.2 87 +13 +16 1023.4 996.4
08 11.09 В 2 20 км 8/0
[Cc]
+16.3 +12.1 76 +16 +21 1023.3 996.6
09 11.09 В 1 20 км 5/0
[Cc]
+18.8 +11.6 63 +21 +29 комфорт 1023.5 997.0
10 11.09 СВ 1 20 км 5/1 900 м
[Cu hum Cc]
+19.8 +11.7 60 +22 +32 комфорт 1023.2 996.8
11 11.09 СВ 2 20 км 5/3 1000 м
[Cu hum Ci fib]
+20.9 +12.3 58 +24 +31 комфорт 1022.7 996.4
12 11.09 В 2 20 км 5/3 1200 м
[Cu hum Ci fib]
+22.7 +12.4 52 +25 +32 комфорт 1022.2 996.1
13 11.09 СЗ 1 20 км 6/4 1200 м
[Cu hum Ac trans Ci fib]
+22.0 +12.6 55 +25 +29 комфорт 1022.2 996.0
14 11.09 СЗ 1 20 км 8/4 1200 м
[Cu hum As trans Ci fib]
+21.9 +12.7 56 +24 +27 комфорт 1022.2 996.0
15 11.09 С 1 20 км 6/1 1200 м
[Cu hum As trans Ci fib]
+22.4 +12.4 53 +25 +27 комфорт 1022.1 995.9
16 11.09 С 1 20 км 6/1 1200 м
[Cu hum Ac trans Ci fib]
+21.8 +12.8 57 +24 +25 комфорт 1022.2 996.0
17 11.09 С 1 20 км 6/0
[Ac trans Ci fib]
+20.8 +13.3 62 +24 +24 комфорт 1022.6 996.3
18 11.09 ЮЗ 1 20 км 5/0
[Ac trans Ci fib]
+18.3 +13.7 75 +20 +20 1023.3 996.8 +22.9
19 11.09 штиль 0 20 км 5/0
[Ac trans Ci fib]
+17.2 +14.3 83 +17 +17 1024.1 997.4
20 11.09 ЮЗ 2 20 км 5/0
[Ac trans Ci fib]
+15.5 +13.9 90 +15 +15 1024.6 997.8
21 11.09 Ю 1 20 км 5/0
[Ac trans Ci fib]
+14.3 +13.0 92 +15 +15 1025.2 998.2
22 11.09 В 2 20 км 3/0
[Ac trans]
+13.8 +12.1 89 +13 +13 1025.0 998.0
23 11.09 ЮЗ 1 20 км 1/0
[Ac trans]
+13.2 +11.4 89 +13 +13 1025.6 998.5
00 12.09 штиль 0 20 км 1/0
[Ac trans]
+12.8 +11.7 93 +12 +12 1025.9 998.8
01 12.09 Ю 1 20 км 1/0
[Ac trans]
+12.6 +11.3 92 +13 +13 1026.4 999.2
02 12.09 З 1 20 км 1/0
[Ac trans]
+13.3 +11.6 89 +13 +13 1026.8 999.7
03 12.09 В 2 20 км 1/0 1500 м
[Ac trans]
+11.4 +10.6 95 +10 +10 1027.0 999.7
04 12.09 В 1 20 км ясно +11.0 +10.2 95 +11 +11 1027.4 1000.0
05 12.09 штиль 0 20 км местами туман поземный ясно +10.2 +9.6 96 +9 +9 1028.4 1000.9
06 12.09 ЮВ 1 20 км ясно +11.7 +10.8 94 +11 +13 1028.7 1001.4 +10.1
07 12.09 СЗ 1 20 км ясно +15.4 +12.1 81 +16 +19 1029.1 1002.1
08 12.09 З 4 20 км ясно +18.1 +9.9 59 +18 +22 1029.1 1002.4
09 12.09 З 6 20 км 4/1 1080 м
[Cu hum Ac und]
+19.5 +10.3 55 +20 +22 1029.2 1002.6
10 12.09 З 6 20 км 4/4 1110 м
[Cu Sc]
+19.4 +11.1 59 +20 +22 1029.5 1002.9
11 12.09 З 5 20 км 6/4 1110 м
[Cu med, cong Ac und]
+19.7 +11.7 60 +21 +23 комфорт 1029.6 1003.0
12 12.09 З 5 20 км 5/4 1140 м
[Cu med, cong Ac trans]
+20.4 +12.6 61 +22 +25 комфорт 1029.4 1002.9
13 12.09 З 4 20 км 5/5 1140 м
[Cu Sc Ci fib]
+21.6 +13.2 59 +24 +27 комфорт 1028.9 1002.5
14 12.09 З 5 20 км 5/5 1170 м
[Cu Sc]
+21.2 +12.4 57 +23 +25 комфорт 1028.9 1002.5
15 12.09 З 2 20 км 5/5 1200 м
[Cu Sc]
+20.5 +13.0 62 +23 +25 комфорт 1028.9 1002.4
16 12.09 С 1 20 км 5/0
[Ac cast Cc]
+20.7 +13.1 62 +24 +25 комфорт 1028.7 1002.2
17 12.09 ЮВ 1 20 км 5/4 1500 м
[Sc Ci sp]
+19.1 +13.9 72 +21 +21 комфорт 1028.7 1002.1
18 12.09 ЮВ 1 20 км 6/0 2000 м
[Ac As Ci sp]
+17.2 +13.6 79 +18 +18 1029.1 1002.3 +21.7
19 12.09 штиль 0 20 км 8/3 1380 м
[Sc Ac und Ci sp]
+16.5 +13.7 84 +16 +16 1029.4 1002.5
20 12.09 В 1 20 км 4/0
[Ac trans]
+16.4 +13.7 84 +17 +17 1029.5 1002.6
21 12.09 ЮЗ 1 20 км 3/0 2000 м
[Ac trans]
+14.8 +13.1 90 +15 +15 1029.6 1002.6
22 12.09 З 1 20 км ясно +15.5 +12.2 81 +16 +16 1029.7 1002.7
23 12.09 З 1 20 км ясно +14.8 +12.3 85 +15 +15 1029.8 1002.8
00 13.09 З 1 20 км 3/3 1500 м
[Sc]
+14.4 +11.9 85 +15 +15 1029.8 1002.7
01 13.09 СВ 1 20 км 9/9 1500 м
[Sc]
+13.9 +11.7 87 +14 +14 1029.7 1002.6
02 13.09 В 1 20 км 9/9 1500 м
[Sc]
+14.5 +12.4 87 +15 +15 1029.7 1002.6
03 13.09 В 2 20 км 8/8 1500 м
[Sc]
+12.8 +11.6 92 +12 +12 1029.5 1002.3
04 13.09 штиль 0 20 км 9/9 1500 м
[Sc]
+13.6 +12.3 92 +13 +13 1029.8 1002.6
05 13.09 В 1 20 км 9/9 1500 м
[Sc]
+13.7 +12.4 92 +14 +14 1030.1 1002.9
06 13.09 ЮВ 1 20 км 9/9 1500 м
[Sc]
+14.5 +12.5 88 +15 +15 1029.8 1002.7 +12.8
07 13.09 Ю 1 20 км 5/0
[Ac trans]
+17.9 +13.8 77 +19 +21 1029.5 1002.8
08 13.09 З 4 20 км 5/1 660 м
[Cu hum Ac trans]
+19.7 +13.9 69 +22 +24 комфорт 1029.5 1002.9
09 13.09 З 3 20 км 5/5 720 м
[Cu hum Ac trans]
+20.5 +14.2 67 +23 +27 комфорт 1029.3 1002.8
10 13.09 СЗ 4 20 км 5/5 800 м
[Cu hum]
+21.4 +13.5 61 +24 +27 комфорт 1029.0 1002.6
11 13.09 СЗ 4 20 км 5/5 900 м
[Cu hum]
+22.1 +13.3 57 +25 +28 комфорт 1028.9 1002.5
12 13.09 З 4 20 км 8/8 1050 м
[Cu Sc]
+22.0 +13.9 60 +25 +26 комфорт 1028.9 1002.5
13 13.09 З 5 20 км 9/9 1170 м
[Cu Sc]
+22.3 +12.9 55 +25 +25 комфорт 1028.7 1002.4
14 13.09 З 6 20 км 9/9 1300 м
[Cu Sc]
+22.2 +12.5 54 +25 +25 комфорт 1028.9 1002.5
15 13.09 З 4 20 км 9/4 1440 м
[Cu hum Ac trans]
+22.2 +13.4 57 +25 +26 комфорт 1028.7 1002.4
16 13.09 З 3 20 км 6/3 1500 м
[Cu hum Ac trans]
+21.8 +13.7 60 +25 +25 комфорт 1028.7 1002.3
17 13.09 З 3 20 км 6/0
[Ac trans]
+21.0 +13.4 62 +24 +24 комфорт 1029.0 1002.5
18 13.09 З 3 20 км 6/0
[Ac trans]
+19.5 +14.0 71 +21 +21 комфорт 1029.3 1002.7 +23.5
19 13.09 З 3 20 км 5/0
[Ac trans Ci fib]
+18.4 +13.7 74 +19 +19 1029.5 1002.8
20 13.09 ЮЗ 1 20 км 3/0
[Ci fib]
+16.0 +13.1 83 +17 +17 1030.2 1003.3
21 13.09 З 1 20 км 5/3 1500 м
[Sc Ci fib]
+14.7 +12.9 89 +15 +15 1030.8 1003.7
22 13.09 СВ 1 20 км 6/4 1500 м
[Sc Ac und Ci fib]
+17.0 +12.8 76 +18 +18 1031.2 1004.3
23 13.09 СВ 1 20 км 10/10 1500 м
[Sc]
+16.8 +12.1 74 +18 +18 1031.7 1004.8
00 14.09 С 1 20 км 10/10 1500 м
[Sc]
+16.6 +11.8 73 +17 +17 1031.9 1005.0
01 14.09 С 2 20 км 9/9 930 м
[Sc]
+16.2 +11.7 75 +16 +16 1032.3 1005.3
02 14.09 СВ 1 20 км 9/9 1500 м
[Sc]
+15.5 +11.2 76 +16 +16 1032.3 1005.2
03 14.09 С 1 20 км 6/0 2000 м
[Ac trans]
+14.6 +10.7 77 +15 +15 1032.4 1005.3
04 14.09 З 1 20 км 1/0
[Ac trans]
+13.3 +9.8 79 +14 +14 1032.7 1005.4
05 14.09 СЗ 1 20 км 5/0
[Ac trans]
+12.5 +9.8 84 +13 +13 1033.5 1006.1
06 14.09 СЗ 1 20 км 4/0 2000 м
[Ac trans Ci fib]
+13.4 +10.1 80 +14 +15 1033.7 1006.4 +11.6
07 14.09 С 2 20 км 5/0
[Ac trans Ci fib]
+15.2 +9.2 67 +15 +17 1033.8 1006.7
08 14.09 СВ 3 20 км 4/1 900 м
[Cu hum Ac trans Ci fib]
+16.8 +7.0 52 +17 +20 1033.8 1006.8
09 14.09 СВ 3 20 км 3/3 960 м
[Cu hum Ac trans]
+17.1 +7.3 52 +17 +21 1033.3 1006.3
10 14.09 С 2 20 км 4/4 1200 м
[Cu hum Ci sp]
+17.7 +5.9 46 +18 +24 1033.2 1006.3
11 14.09 СВ 2 20 км 4/1 1410 м
[Cu hum Ci fib]
+18.6 +5.4 42 +19 +28 1032.7 1005.9
12 14.09 С 3 20 км 4/1 1500 м
[Cu med, cong Ci fib]
+18.7 +5.9 43 +19 +26 1032.3 1005.5
13 14.09 С 2 20 км 5/1 1500 м
[Cu hum Ci]
+18.7 +4.0 38 +19 +25 1031.9 1005.1
14 14.09 З 1 20 км 5/0
[Ci fib]
+19.6 +5.5 40 +21 +27 комфорт 1031.0 1004.3
15 14.09 З 2 20 км 6/0
[Ci]
+19.2 +3.6 36 +20 +22 1030.3 1003.6
16 14.09 СЗ 1 20 км 4/0
[Ac trans Ci fib]
+18.8 +4.0 37 +20 +21 1029.7 1003.0
17 14.09 С 1 20 км 3/0
[Ci fib]
+17.5 +5.4 45 +19 +19 1029.7 1002.9
18 14.09 штиль 0 20 км 3/0
[Ci fib]
+13.5 +7.2 66 +13 +13 1030.4 1003.2 +19.9
19 14.09 ЮЗ 2 20 км 3/0
[Ci fib]
+11.0 +7.6 80 +10 +10 1030.7 1003.2
20 14.09 Ю 2 20 км 3/0
[Ci fib]
+10.5 +7.5 82 +9 +9 1031.1 1003.6
21 14.09 СЗ 1 20 км 4/0
[Ci fib]
+10.7 +7.6 81 +10 +10 1030.6 1003.1
22 14.09 ЮВ 1 20 км ясно +8.6 +6.4 86 +8 +8 1030.5 1002.8
23 14.09 СВ 1 20 км ясно +8.5 +6.3 86 +8 +8 1030.3 1002.6
00 15.09 В 2 20 км ясно +7.5 +5.8 89 +5 +5 1029.6 1001.8
01 15.09 В 1 20 км ясно +7.2 +5.9 91 +6 +6 1029.4 1001.6
02 15.09 В 2 20 км ясно +6.9 +5.5 91 +5 +5 1028.8 1001.0
03 15.09 В 1 20 км ясно +6.0 +4.5 90 +5 +5 1028.4 1000.5
04 15.09 СВ 1 20 км ясно +6.9 +5.7 92 +6 +6 1027.9 1000.1
05 15.09 В 1 20 км 3/0
[Ci fib]
+6.4 +5.1 91 +5 +5 1027.7 999.9
06 15.09 В 1 20 км 3/0
[Ci fib]
+9.3 +7.1 86 +9 +10 1027.2 999.7 +5.9
07 15.09 В 1 20 км 3/0
[Ci fib]
+13.3 +7.9 70 +14 +16 1026.5 999.4
08 15.09 В 1 20 км 1/0
[Ci fib]
+16.1 +8.5 61 +17 +23 1025.9 999.0
09 15.09 СЗ 2 20 км 4/0
[Ci]
+17.7 +8.8 56 +18 +25 1025.5 998.8
10 15.09 Ю 1 20 км 4/0
[Ci fib]
+20.0 +10.1 53 +22 +32 комфорт 1024.4 997.9
11 15.09 З 2 20 км 4/4 1200 м
[Cu hum Ci fib]
+22.4 +12.3 53 +25 +31 комфорт 1022.9 996.7
12 15.09 З 3 20 км 4/4 1200 м
[Cu hum Ci fib]
+22.6 +12.1 51 +25 +30 комфорт 1021.7 995.6
13 15.09 ЮЗ 5 20 км 4/4 1350 м
[Cu hum Ci fib]
+23.4 +12.9 52 +26 +29 жарко 1021.1 995.1
14 15.09 З 5 20 км 4/4 1410 м
[Cu hum Ci fib]
+24.8 +12.3 46 +27 +28 жарко 1020.3 994.4
15 15.09 З 3 20 км 6/0
[Ci]
+24.8 +12.9 48 +27 +29 жарко 1019.3 993.4
16 15.09 З 2 20 км 8/0
[Ci]
+24.0 +12.6 49 +26 +27 жарко 1018.9 993.0
17 15.09 ЮВ 1 20 км 8/0
[Ci fib]
+21.4 +14.1 63 +24 +24 комфорт 1018.7 992.6
18 15.09 Ю 1 20 км 8/0
[Ci fib]
+18.4 +13.5 73 +20 +20 1019.1 992.7 +24.9
19 15.09 Ю 1 20 км 8/0
[Ci]
+16.6 +12.9 79 +17 +17 1019.2 992.6
20 15.09 В 1 20 км 8/0
[Ci fib]
+16.3 +12.4 78 +17 +17 1019.1 992.5
21 15.09 З 1 20 км 6/0
[Ci fib]
+17.9 +12.4 70 +19 +19 1018.8 992.3
22 15.09 З 4 20 км 5/0
[Ci fib]
+19.0 +12.4 66 +20 +20 1018.6 992.2
23 15.09 З 2 20 км 5/0
[Ci fib]
+17.6 +12.6 72 +18 +18 1018.8 992.3
00 16.09 З 1 20 км 4/0
[Ci fib]
+15.5 +12.2 81 +16 +16 1018.9 992.2
01 16.09 З 1 20 км 4/0
[Ci fib]
+15.4 +12.3 82 +16 +16 1018.7 992.0
02 16.09 СЗ 1 20 км 3/0
[Ci fib]
+14.2 +12.1 87 +15 +15 1018.8 992.0
03 16.09 ЮЗ 1 20 км 4/0
[Ci fib]
+12.0 +11.0 94 +12 +12 1019.0 992.0
04 16.09 З 1 20 км 5/0
[Ac trans Ci fib]
+13.6 +11.5 87 +14 +14 1019.0 992.1
05 16.09 З 1 20 км 8/0
[Ac und Ci fib]
+13.6 +10.7 83 +14 +14 1019.4 992.5
06 16.09 З 2 20 км 9/0
[Ac trans Ci]
+14.4 +11.0 80 +14 +14 1019.3 992.5 +11.8
07 16.09 З 3 20 км 9/6 1200 м
[Sc Ci]
+16.1 +10.7 70 +16 +16 1019.8 993.1
08 16.09 З 3 20 км 9/5 1200 м
[Sc Cs]
+17.3 +10.9 66 +17 +19 1019.5 992.9
09 16.09 З 4 20 км 10/4 1350 м
[Sc Ac trans Cs]
+17.5 +11.5 68 +17 +19 1019.5 993.0
10 16.09 СЗ 4 20 км 10/8 750 м
[Cu Sc Cs]
+17.9 +11.9 68 +18 +19 1019.1 992.6
11 16.09 СЗ 3 20 км 9/6 900 м
[Cu Sc Cs]
+18.0 +10.3 61 +18 +21 1018.5 992.0
12 16.09 СЗ 3 20 км 9/4 1350 м
[Sc Ac und Ci fib]
+19.0 +10.7 59 +20 +23 1017.7 991.3
13 16.09 СЗ 3 20 км 9/4 1440 м
[Sc Ac trans]
+19.0 +10.4 57 +20 +22 1017.0 990.7
14 16.09 СЗ 3 20 км 9/0
[Ac trans]
+19.3 +10.9 58 +21 +22 комфорт 1016.7 990.4
15 16.09 СЗ 2 20 км 9/0
[Ac As]
+19.1 +11.2 60 +21 +21 комфорт 1016.4 990.1
16 16.09 З 1 20 км 10/0
[As trans]
+18.8 +11.0 60 +21 +21 комфорт 1016.0 989.7
17 16.09 штиль 0 20 км слаб. дождь 10/0
[Ac As]
+17.7 +12.8 73 +18 +18 1015.9 989.5
18 16.09 С 3 10 км слаб. дождь 10/0 2000 м
[As trans]
+16.7 +13.3 80 +16 +16 1016.4 989.9 +19.5 0.0
19 16.09 С 1 10 км слаб. дождь 10/6 1500 м
[Sc As trans]
+15.0 +13.5 91 +15 +15 1016.8 990.1
20 16.09 ЮЗ 2 10 км слаб. дождь 10/8 750 м
[Sc As trans]
+14.7 +13.9 95 +14 +14 1016.8 990.1
21 16.09 ЮЗ 1 8000 м слаб. дождь 10/10 660 м
[Sc]
+14.8 +13.9 94 +15 +15 1016.6 989.9

 

Местоположение метеостанции Пардубице (Чехия): широта 50.02 долгота 15.73 высота над уровнем моря 230 м.

В архиве по умолчанию представлена погода в Пардубице за последнюю неделю. Архивные данные за месяц целиком и за предыдущие месяцы, начиная с января 2011 года, Вы можете получить, выбрав интересующий диапазон дат из раскрывающегося списка и нажав кнопку "Ввод!".


*Определитесь, кто Вы:
робот инопланетянин человек

Внимание! Время в таблицах - всемирное. Для получения местного времени необходимо прибавить поправку, которая равна 1 ч.

Смотрите также архив погоды в соседних городах и на ближайших метеорологических станциях:

Погода в Чаславе (Чехия) (27 км)
Погода в Свраточе (Чехия) (39 км)
Погода в Пршибиславе (Чехия) (49 км)
Погода в Усти-над-Орлици (Чехия) (50 км)
Погода в Поломе (Чехия) (56 км)
Погода в Кресин-Крамолине (Чехия) (68 км)
Погода в Пец-под-Снежкой (Чехия) (72 км)
Погода в Клодзко (Польша) (78 км)
Погода на Снежке (Польша) (79 км)
Погода на Снежке (Чехия) (80 км)

Пояснения к столбцам:

Ветер - указаны скорость ветра в м/с - средняя за 10 мин, порывы в срок и между сроками (в фигурных скобках) и направление, откуда дует ветер: С - северный, СВ - северо-восточный, В - восточный, ЮВ - юго-восточный, Ю - южный, ЮЗ - юго-западный, З - западный, СЗ - северо-западный.
Видимость - горизонтальная дальность видимости в метрах или километрах. При видимости от 1 до 10 км при отсутствии осадков обычно наблюдается дымка, при ухудшении видимости до 1 км и менее - туман. В сухую погоду видимость может ухудшаться дымом, пылью или мглою.
Явления - указаны атмосферные явления, наблюдавшиеся в срок или в последний час перед сроком; фигурными скобками обозначены явления, наблюдавшиеся между сроками (за 1-3 часа до срока); квадратными скобками обозначены град или гололедные отложения с указанием их диаметра в мм.
Облачность - указаны через наклонную черту общая и нижняя облачность в баллах и высота нижней границы облаков в метрах; квадратными скобками обозначены формы облаков: Ci - перистые, Cs - перисто-слоистые, Cc - перисто-кучевые, Ac - высококучевые, As - высокослоистые, Sc - слоисто-кучевые, Ns - слоисто-дождевые, Cu - кучевые, Cb - кучево-дождевые. Подробнее классификацию облаков см. в Атласе облаков (PDF).
T - Температура воздуха - температура, измеренная на высоте 2 м над землей.
Td - Температура точки росы - температура, при понижении до которой содержащийся в воздухе водяной пар достигнет насыщения.
f - Относительная влажность воздуха - влажноcть воздуха, измеренная на высоте 2 м над землей.
Te - Эффективная температура - температура, которую ощущает одетый по сезону человек в тени. Характеристика душности погоды. При расчете учитывается влияние влажности воздуха и скорости ветра на теплоощущения человека.
Tes - Эффективная температура на солнце - температура, которую ощущает человек, с поправкой на солнечный нагрев. Характеристика знойности погоды. Зависит от высоты солнца над горизонтом, облачности и скорости ветра. Ночью, в пасмурную погоду, а также при ветре 12 м/с и более поправка равна нулю.
P - Атмосферное давление - приведенное к уровню моря атмосферное давление.
Po - Атмосферное давление - измеренное на уровне метеостанции атмосферное давление.
Tmin - Минимальная температура - минимум температуры воздуха на высоте 2 м над землей.
Tmax - Максимальная температура - максимум температуры воздуха на высоте 2 м над землей.
R - Количество осадков - Количество выпавших осадков за период времени, мм. При наведении курсора мыши на число - период времени, за который выпало указанное количество осадков.
R24 - Количество осадков - Количество выпавших осадков за 24 часа, мм.
S - Снежный покров - Высота снежного покрова, см. При наведении курсора мыши на число - состояние снежного покрова и степень покрытия местности в баллах.